Find CICERO-3

NORAD ID: 42849 Int'l Des: NNA 2017-042 Owner: GEOOPT Country: US operational
LEOCIRCULARRETROGRADESSO

リアルタイム位置

3D地球を読み込み中...

CICERO-3について

説明を読み込み中...

次回通過

Passes for default location (London). Set your location on the main map for personalized predictions.

高度履歴

Loading altitude history...

軌道要素

1 42849U 17042AA 26104.72537245 .00001992 00000-0 13577-3 0 9996
2 42849 97.4197 272.7098 0009951 327.8503 32.2117 15.07327099477651
Epoch: Apr 14, 2026 • Age: 10 hours

現在のステータス

高度 553.6 km
速度 7.59 km/s
衛星直下点 55.60°N, 10.66°E
打ち上げ日 Jul 14, 2017
運用期間 8.7 years
タイプ other

技術仕様

分類 Payload
質量 10.00 kg
乾燥質量 10.00 kg
総質量 10.00 kg
長さ 0.30 m
直径 0.20 m
スパン 0.60 m
形状 Box+2 pan
製造者 TYVAK
バスタイプ Cubesat 6U
フェーズステータス In Orbit
所有者/国 GEOOPT/US

Most Searched